Retour au catalogue

ASTRID

ActifSciencePO
NORAD 23464·PAYLOAD·🇸🇪 Sweden

Lancé Jan 24, 1995 depuis Plesetsk Cosmodrome

Loading…

Prochains Passages (prochaines 24 heures)

TLE

FraisSource: Space-Track

Époque: Sep 14, 2026, 03:32 UTC

1 23464U 95002B   26257.14739948  .00000101  00000-0  92494-4 0  9996
2 23464  82.9282 312.8123 0039492 261.0088  98.6597 13.73093678584248

Suivez ASTRID en temps réel avec AllMySat

Download on the App Store